Location: Clifton Park
(41.4873°N, 81.8024°W)
Time: 01:35:09
(UTC+00:00)

Cosmos 2237 Rocket - Pass Details

Date: 21 January 2020
Orbit: 836 x 848 km, 71.0° (Epoch: 28 February)

Event Time Altitude Azimuth Distance (km) Brightness Sun altitude
Rises 00:46:45 0° 327° (NNW) 3,394 5.7 -25.7°
Reaches altitude 10° 00:49:22 10° 320° (NW) 2,455 5.0 -26.2°
Maximum altitude 00:54:27 36° 255° (WSW) 1,302 3.6 -27.2°
Drops below altitude 10° 00:59:30 10° 190° (S) 2,441 4.7 -28.1°
Sets 01:02:06 0° 182° (S) 3,372 5.4 -28.6°
